Time,TemperatureF,DewpointF,PressureIn,WindDirection,WindDirectionDegrees,WindSpeedMPH,WindSpeedGustMPH,Humidity,HourlyPrecipIn,Conditions,Clouds,dailyrainin,SoftwareType,DateUTC
2013-05-02 00:00:00,63.0,62.4,30.26,ESE,112,7.1,7.1,98,0.01,RA,,0.00,WeatherDisplay:10.37,2013-05-02 04:00:00,
2013-05-02 00:01:00,63.0,62.4,30.26,ESE,112,7.1,7.1,98,0.01,RA,,0.00,WeatherDisplay:10.37,2013-05-02 04:01:00,
2013-05-02 00:06:00,62.8,62.2,30.26,NNW,338,8.1,8.1,98,0.01,RA,,0.00,WeatherDisplay:10.37,2013-05-02 04:06:00,
2013-05-02 00:11:00,62.6,62.0,30.26,East,90,13.8,13.8,98,0.01,CLR,,0.00,WeatherDisplay:10.37,2013-05-02 04:11:00,
2013-05-02 00:16:00,62.6,62.0,30.26,ESE,112,8.1,8.1,98,0.01,CLR,,0.00,WeatherDisplay:10.37,2013-05-02 04:16:00,
2013-05-02 00:21:00,62.6,62.0,30.26,East,90,12.7,12.7,98,0.01,CLR,,0.00,WeatherDisplay:10.37,2013-05-02 04:21:00,
2013-05-02 00:26:00,62.6,62.0,30.26,NNE,22,13.8,13.8,98,0.00,CLR,,0.00,WeatherDisplay:10.37,2013-05-02 04:26:00,
2013-05-02 00:31:00,62.4,61.8,30.26,ESE,112,19.6,19.6,98,0.00,CLR,,0.00,WeatherDisplay:10.37,2013-05-02 04:31:00,
2013-05-02 00:36:00,62.4,61.8,30.26,East,90,9.4,9.4,98,0.00,CLR,,0.00,WeatherDisplay:10.37,2013-05-02 04:36:00,
2013-05-02 00:41:00,62.4,61.8,30.26,NE,45,6.9,6.9,98,0.00,CLR,,0.00,WeatherDisplay:10.37,2013-05-02 04:41:00,
2013-05-02 00:46:00,62.2,61.6,30.26,East,90,14.0,14.0,98,0.00,CLR,,0.00,WeatherDisplay:10.37,2013-05-02 04:46:00,
2013-05-02 00:51:00,62.2,61.6,30.26,East,90,8.1,8.1,98,0.00,CLR,,0.00,WeatherDisplay:10.37,2013-05-02 04:51:00,
2013-05-02 00:56:00,62.2,61.6,30.26,ENE,68,9.2,9.2,98,0.00,CLR,,0.00,WeatherDisplay:10.37,2013-05-02 04:56:00,
2013-05-02 01:01:00,62.4,61.8,30.26,East,90,11.7,11.7,98,0.00,CLR,,0.00,WeatherDisplay:10.37,2013-05-02 05:01:00,
2013-05-02 01:06:00,62.4,61.8,30.26,ESE,112,10.4,10.4,98,0.00,CLR,,0.00,WeatherDisplay:10.37,2013-05-02 05:06:00,
2013-05-02 01:11:00,62.4,61.8,30.26,ENE,68,12.7,12.7,98,0.00,CLR,,0.00,WeatherDisplay:10.37,2013-05-02 05:11:00,
2013-05-02 01:16:00,62.6,62.0,30.26,East,90,12.7,12.7,98,0.00,CLR,,0.00,WeatherDisplay:10.37,2013-05-02 05:16:00,
2013-05-02 01:21:00,62.6,62.0,30.26,NNE,22,10.4,10.4,98,0.00,CLR,,0.00,WeatherDisplay:10.37,2013-05-02 05:21:00,
2013-05-02 01:26:00,62.6,62.0,30.26,North,360,8.1,8.1,98,0.00,CLR,,0.00,WeatherDisplay:10.37,2013-05-02 05:26:00,
2013-05-02 01:31:00,62.6,62.0,30.26,NE,45,11.5,11.5,98,0.00,CLR,,0.00,WeatherDisplay:10.37,2013-05-02 05:31:00,
2013-05-02 01:36:00,62.6,62.0,30.26,East,90,7.9,7.9,98,0.00,CLR,,0.00,WeatherDisplay:10.37,2013-05-02 05:36:00,
2013-05-02 01:41:00,62.6,62.0,30.25,ESE,112,10.4,10.4,98,0.00,CLR,,0.00,WeatherDisplay:10.37,2013-05-02 05:41:00,
2013-05-02 01:46:00,62.2,61.6,30.25,ENE,68,18.4,18.4,98,0.00,CLR,,0.00,WeatherDisplay:10.37,2013-05-02 05:46:00,
2013-05-02 01:51:00,62.2,61.6,30.25,ESE,112,9.2,9.2,98,0.00,CLR,,0.00,WeatherDisplay:10.37,2013-05-02 05:51:00,
2013-05-02 01:56:00,62.4,61.8,30.25,NNE,22,13.8,13.8,98,0.00,CLR,,0.00,WeatherDisplay:10.37,2013-05-02 05:56:00,
2013-05-02 02:01:00,62.4,61.8,30.25,NE,45,11.5,11.5,98,0.00,CLR,,0.00,WeatherDisplay:10.37,2013-05-02 06:01:00,
2013-05-02 02:06:00,62.4,61.8,30.25,East,90,16.1,16.1,98,0.00,CLR,,0.00,WeatherDisplay:10.37,2013-05-02 06:06:00,
2013-05-02 02:11:00,62.2,61.6,30.25,NE,45,11.5,11.5,98,0.00,CLR,,0.00,WeatherDisplay:10.37,2013-05-02 06:11:00,
2013-05-02 02:16:00,62.2,61.6,30.24,SE,135,11.5,11.5,98,0.00,CLR,,0.00,WeatherDisplay:10.37,2013-05-02 06:16:00,
2013-05-02 02:21:00,62.4,61.8,30.24,East,90,9.2,9.2,98,0.00,CLR,,0.00,WeatherDisplay:10.37,2013-05-02 06:21:00,
2013-05-02 02:26:00,62.6,62.0,30.24,ENE,68,13.8,13.8,98,0.00,CLR,,0.00,WeatherDisplay:10.37,2013-05-02 06:26:00,
2013-05-02 02:31:00,62.6,62.0,30.24,ESE,112,10.2,10.2,98,0.00,CLR,,0.00,WeatherDisplay:10.37,2013-05-02 06:31:00,
2013-05-02 02:36:00,62.6,62.0,30.24,ENE,68,11.5,11.5,98,0.00,CLR,,0.00,WeatherDisplay:10.37,2013-05-02 06:36:00,
2013-05-02 02:41:00,62.6,62.0,30.24,ENE,68,11.5,11.5,98,0.00,CLR,,0.00,WeatherDisplay:10.37,2013-05-02 06:41:00,
2013-05-02 02:46:00,62.6,62.0,30.24,ESE,112,10.4,10.4,98,0.00,CLR,,0.00,WeatherDisplay:10.37,2013-05-02 06:46:00,
2013-05-02 02:51:00,62.6,62.0,30.24,ESE,112,17.1,17.1,98,0.00,CLR,,0.00,WeatherDisplay:10.37,2013-05-02 06:51:00,
2013-05-02 02:56:00,62.6,62.0,30.24,East,90,14.8,14.8,98,0.00,CLR,,0.00,WeatherDisplay:10.37,2013-05-02 06:56:00,
2013-05-02 03:01:00,62.6,62.0,30.24,ESE,112,9.2,9.2,98,0.00,CLR,,0.00,WeatherDisplay:10.37,2013-05-02 07:01:00,
2013-05-02 03:06:00,62.6,62.0,30.24,East,90,12.7,12.7,98,0.00,CLR,,0.00,WeatherDisplay:10.37,2013-05-02 07:06:00,
2013-05-02 03:11:00,62.6,62.0,30.24,NNE,22,8.1,8.1,98,0.00,CLR,,0.00,WeatherDisplay:10.37,2013-05-02 07:11:00,
2013-05-02 03:16:00,62.8,62.2,30.24,East,90,8.1,8.1,98,0.00,CLR,,0.00,WeatherDisplay:10.37,2013-05-02 07:16:00,
2013-05-02 03:21:00,62.8,62.2,30.24,ESE,112,9.2,9.2,98,0.00,CLR,,0.00,WeatherDisplay:10.37,2013-05-02 07:21:00,
2013-05-02 03:26:00,62.8,62.2,30.24,East,90,10.4,10.4,98,0.00,CLR,,0.00,WeatherDisplay:10.37,2013-05-02 07:26:00,
2013-05-02 03:31:00,62.8,62.2,30.24,ENE,68,9.2,9.2,98,0.00,CLR,,0.00,WeatherDisplay:10.37,2013-05-02 07:31:00,
2013-05-02 03:36:00,62.6,62.0,30.24,West,270,9.2,9.2,98,0.00,CLR,,0.00,WeatherDisplay:10.37,2013-05-02 07:36:00,
2013-05-02 03:41:00,62.6,62.0,30.24,ENE,68,11.5,11.5,98,0.00,CLR,,0.00,WeatherDisplay:10.37,2013-05-02 07:41:00,
2013-05-02 03:47:00,62.6,62.0,30.24,NE,45,7.1,7.1,98,0.00,CLR,,0.00,WeatherDisplay:10.37,2013-05-02 07:47:00,
2013-05-02 03:52:00,62.6,62.0,30.23,North,360,11.5,11.5,98,0.00,CLR,,0.00,WeatherDisplay:10.37,2013-05-02 07:52:00,
2013-05-02 03:57:00,62.6,62.0,30.23,NNW,338,16.1,16.1,98,0.00,CLR,,0.00,WeatherDisplay:10.37,2013-05-02 07:57:00,
2013-05-02 04:02:00,62.6,62.0,30.23,ESE,112,9.2,9.2,98,0.00,CLR,,0.00,WeatherDisplay:10.37,2013-05-02 08:02:00,
2013-05-02 04:07:00,62.6,62.0,30.23,ENE,68,9.2,9.2,98,0.00,CLR,,0.00,WeatherDisplay:10.37,2013-05-02 08:07:00,
2013-05-02 04:12:00,62.6,62.0,30.23,ENE,68,9.2,9.2,98,0.00,CLR,,0.00,WeatherDisplay:10.37,2013-05-02 08:12:00,
2013-05-02 04:17:00,62.6,62.0,30.23,ESE,112,12.5,12.5,98,0.00,CLR,,0.00,WeatherDisplay:10.37,2013-05-02 08:17:00,
2013-05-02 04:22:00,62.6,62.0,30.23,East,90,11.5,11.5,98,0.00,CLR,,0.00,WeatherDisplay:10.37,2013-05-02 08:22:00,
2013-05-02 04:27:00,62.8,62.2,30.23,NNE,22,10.4,10.4,98,0.00,CLR,,0.00,WeatherDisplay:10.37,2013-05-02 08:27:00,
2013-05-02 04:32:00,62.8,62.2,30.23,ENE,68,13.8,13.8,98,0.00,CLR,,0.00,WeatherDisplay:10.37,2013-05-02 08:32:00,
2013-05-02 04:37:00,62.8,62.2,30.23,South,180,11.5,11.5,98,0.00,CLR,,0.00,WeatherDisplay:10.37,2013-05-02 08:37:00,
2013-05-02 04:42:00,62.8,62.2,30.23,ESE,112,13.3,13.3,98,0.00,CLR,,0.00,WeatherDisplay:10.37,2013-05-02 08:42:00,
2013-05-02 04:47:00,62.8,62.2,30.23,SSE,158,14.8,14.8,98,0.00,CLR,,0.00,WeatherDisplay:10.37,2013-05-02 08:47:00,
2013-05-02 04:52:00,63.0,62.4,30.23,ESE,112,7.9,7.9,98,0.00,CLR,,0.00,WeatherDisplay:10.37,2013-05-02 08:52:00,
2013-05-02 04:57:00,63.0,62.4,30.23,East,90,9.4,9.4,98,0.00,CLR,,0.00,WeatherDisplay:10.37,2013-05-02 08:57:00,
2013-05-02 05:02:00,62.8,62.2,30.23,East,90,17.3,17.3,98,0.00,CLR,,0.00,WeatherDisplay:10.37,2013-05-02 09:02:00,
2013-05-02 05:07:00,63.0,62.4,30.23,NE,45,13.8,13.8,98,0.00,CLR,,0.00,WeatherDisplay:10.37,2013-05-02 09:07:00,
2013-05-02 05:12:00,63.0,62.4,30.23,ESE,112,12.7,12.7,98,0.00,CLR,,0.00,WeatherDisplay:10.37,2013-05-02 09:12:00,
2013-05-02 05:17:00,63.0,62.4,30.23,NNE,22,10.4,10.4,98,0.00,CLR,,0.00,WeatherDisplay:10.37,2013-05-02 09:17:00,
2013-05-02 05:22:00,63.0,62.4,30.23,ESE,112,10.4,10.4,98,0.00,CLR,,0.00,WeatherDisplay:10.37,2013-05-02 09:22:00,
2013-05-02 05:27:00,63.0,62.4,30.23,East,90,7.1,7.1,98,0.00,CLR,,0.00,WeatherDisplay:10.37,2013-05-02 09:27:00,
2013-05-02 05:32:00,63.0,62.4,30.23,East,90,13.8,13.8,98,0.00,CLR,,0.00,WeatherDisplay:10.37,2013-05-02 09:32:00,
2013-05-02 05:37:00,63.0,62.4,30.23,East,90,9.4,9.4,98,0.00,CLR,,0.00,WeatherDisplay:10.37,2013-05-02 09:37:00,
2013-05-02 05:42:00,63.0,62.4,30.23,WNW,292,8.1,8.1,98,0.00,CLR,,0.00,WeatherDisplay:10.37,2013-05-02 09:42:00,
2013-05-02 05:47:00,63.0,62.4,30.23,ENE,68,12.7,12.7,98,0.00,CLR,,0.00,WeatherDisplay:10.37,2013-05-02 09:47:00,
2013-05-02 05:52:00,62.8,62.2,30.24,East,90,14.8,14.8,98,0.00,CLR,,0.00,WeatherDisplay:10.37,2013-05-02 09:52:00,
2013-05-02 05:57:00,62.8,62.2,30.24,East,90,9.2,9.2,98,0.00,CLR,,0.00,WeatherDisplay:10.37,2013-05-02 09:57:00,
2013-05-02 06:02:00,62.8,62.2,30.24,NE,45,11.5,11.5,98,0.00,CLR,,0.00,WeatherDisplay:10.37,2013-05-02 10:02:00,
2013-05-02 06:07:00,62.8,62.2,30.24,NE,45,15.0,15.0,98,0.00,CLR,,0.00,WeatherDisplay:10.37,2013-05-02 10:07:00,
2013-05-02 06:12:00,62.8,62.2,30.24,North,360,9.2,9.2,98,0.00,CLR,,0.00,WeatherDisplay:10.37,2013-05-02 10:12:00,
2013-05-02 06:17:00,62.6,62.0,30.24,North,360,10.4,10.4,98,0.00,CLR,,0.00,WeatherDisplay:10.37,2013-05-02 10:17:00,
2013-05-02 06:22:00,62.6,62.0,30.24,East,90,10.4,10.4,98,0.00,CLR,,0.00,WeatherDisplay:10.37,2013-05-02 10:22:00,
2013-05-02 06:27:00,62.4,61.8,30.24,NE,45,18.7,18.7,98,0.00,CLR,,0.00,WeatherDisplay:10.37,2013-05-02 10:27:00,
2013-05-02 06:32:00,62.4,61.8,30.24,East,90,18.4,18.4,98,0.01,RA,,0.01,WeatherDisplay:10.37,2013-05-02 10:32:00,
2013-05-02 06:37:00,62.4,61.8,30.24,NE,45,15.0,15.0,98,0.01,RA,,0.01,WeatherDisplay:10.37,2013-05-02 10:37:00,
2013-05-02 06:42:00,62.2,61.6,30.25,ESE,112,13.8,13.8,98,0.01,,,0.01,WeatherDisplay:10.37,2013-05-02 10:42:00,
2013-05-02 06:47:00,62.2,61.6,30.25,East,90,10.4,10.4,98,0.01,CLR,,0.01,WeatherDisplay:10.37,2013-05-02 10:47:00,
2013-05-02 06:52:00,62.2,61.6,30.25,East,90,9.2,9.2,98,0.02,RA,,0.02,WeatherDisplay:10.37,2013-05-02 10:52:00,
2013-05-02 06:57:00,62.2,61.6,30.25,NE,45,14.0,14.0,98,0.02,RA,,0.02,WeatherDisplay:10.37,2013-05-02 10:57:00,
2013-05-02 07:02:00,62.2,61.6,30.25,East,90,5.8,5.8,98,0.03,RA,,0.03,WeatherDisplay:10.37,2013-05-02 11:02:00,
2013-05-02 07:07:00,62.2,61.6,30.25,NNE,22,11.5,11.5,98,0.03,RA,,0.03,WeatherDisplay:10.37,2013-05-02 11:07:00,
2013-05-02 07:12:00,62.2,61.6,30.25,East,90,11.5,11.5,98,0.03,CLR,,0.03,WeatherDisplay:10.37,2013-05-02 11:12:00,
2013-05-02 07:17:00,62.2,61.6,30.25,ENE,68,11.5,11.5,98,0.03,CLR,,0.03,WeatherDisplay:10.37,2013-05-02 11:17:00,
2013-05-02 07:22:00,62.1,61.5,30.25,NE,45,12.7,12.7,98,0.03,CLR,,0.03,WeatherDisplay:10.37,2013-05-02 11:22:00,
2013-05-02 07:27:00,62.1,61.5,30.26,East,90,6.9,6.9,98,0.03,CLR,,0.03,WeatherDisplay:10.37,2013-05-02 11:27:00,
2013-05-02 07:32:00,62.1,61.5,30.26,ESE,112,9.2,9.2,98,0.02,CLR,,0.03,WeatherDisplay:10.37,2013-05-02 11:32:00,
2013-05-02 07:37:00,62.1,61.5,30.26,East,90,9.2,9.2,98,0.02,CLR,,0.03,WeatherDisplay:10.37,2013-05-02 11:37:00,
2013-05-02 07:42:00,62.2,61.6,30.26,North,360,12.7,12.7,98,0.02,CLR,,0.03,WeatherDisplay:10.37,2013-05-02 11:42:00,
2013-05-02 07:47:00,62.2,61.6,30.26,NE,45,10.4,10.4,98,0.02,CLR,,0.03,WeatherDisplay:10.37,2013-05-02 11:47:00,
2013-05-02 07:52:00,62.2,61.6,30.26,East,90,9.2,9.2,98,0.01,CLR,,0.03,WeatherDisplay:10.37,2013-05-02 11:52:00,
2013-05-02 07:57:00,62.4,61.8,30.26,NNE,22,11.7,11.7,98,0.01,CLR,,0.03,WeatherDisplay:10.37,2013-05-02 11:57:00,
2013-05-02 08:02:00,62.4,61.8,30.26,NE,45,8.6,8.6,98,0.00,CLR,,0.03,WeatherDisplay:10.37,2013-05-02 12:02:00,
2013-05-02 08:07:00,62.4,61.8,30.26,ESE,112,9.2,9.2,98,0.00,CLR,,0.03,WeatherDisplay:10.37,2013-05-02 12:07:00,
2013-05-02 08:12:00,62.4,61.8,30.26,ENE,68,10.2,10.2,98,0.00,CLR,,0.03,WeatherDisplay:10.37,2013-05-02 12:12:00,
2013-05-02 08:17:00,62.4,61.8,30.26,East,90,8.1,8.1,98,0.01,RA,,0.04,WeatherDisplay:10.37,2013-05-02 12:17:00,
2013-05-02 08:22:00,62.4,61.8,30.26,NNE,22,9.2,9.2,98,0.01,RA,,0.04,WeatherDisplay:10.37,2013-05-02 12:22:00,
2013-05-02 08:27:00,62.6,62.0,30.26,East,90,6.9,6.9,98,0.01,CLR,,0.04,WeatherDisplay:10.37,2013-05-02 12:27:00,
2013-05-02 08:32:00,62.6,62.0,30.26,East,90,8.1,8.1,98,0.02,RA,,0.05,WeatherDisplay:10.37,2013-05-02 12:32:00,
2013-05-02 08:37:00,62.4,61.8,30.26,East,90,8.1,8.1,98,0.02,RA,,0.05,WeatherDisplay:10.37,2013-05-02 12:37:00,
2013-05-02 08:42:00,62.6,62.0,30.27,ENE,68,4.0,4.0,98,0.02,,,0.05,WeatherDisplay:10.37,2013-05-02 12:42:00,
2013-05-02 08:47:00,62.8,62.2,30.27,East,90,7.9,7.9,98,0.02,CLR,,0.05,WeatherDisplay:10.37,2013-05-02 12:47:00,
2013-05-02 08:53:00,62.8,62.2,30.27,East,90,9.2,9.2,98,0.02,CLR,,0.05,WeatherDisplay:10.37,2013-05-02 12:53:00,
2013-05-02 08:58:00,62.8,62.2,30.27,ENE,68,6.9,6.9,98,0.02,CLR,,0.05,WeatherDisplay:10.37,2013-05-02 12:58:00,
2013-05-02 09:03:00,63.0,62.4,30.27,ESE,112,7.9,7.9,98,0.02,CLR,,0.05,WeatherDisplay:10.37,2013-05-02 13:03:00,
2013-05-02 09:08:00,63.0,62.4,30.27,NW,315,10.4,10.4,98,0.02,CLR,,0.06,WeatherDisplay:10.37,2013-05-02 13:08:00,
2013-05-02 09:13:00,62.8,62.2,30.27,ENE,68,9.2,9.2,98,0.03,RA,,0.06,WeatherDisplay:10.37,2013-05-02 13:13:00,
2013-05-02 09:18:00,62.8,62.2,30.27,ENE,68,8.1,8.1,98,0.02,RA,,0.07,WeatherDisplay:10.37,2013-05-02 13:18:00,
2013-05-02 09:23:00,63.1,62.5,30.27,East,90,6.9,6.9,98,0.03,RA,,0.07,WeatherDisplay:10.37,2013-05-02 13:23:00,
2013-05-02 09:28:00,63.0,62.4,30.28,North,360,8.6,8.6,98,0.04,RA,,0.08,WeatherDisplay:10.37,2013-05-02 13:28:00,
2013-05-02 09:33:00,63.1,62.5,30.28,East,90,11.7,11.7,98,0.04,RA,,0.09,WeatherDisplay:10.37,2013-05-02 13:33:00,
2013-05-02 09:38:00,63.3,62.7,30.28,East,90,10.4,10.4,98,0.05,RA,,0.10,WeatherDisplay:10.37,2013-05-02 13:38:00,
2013-05-02 09:43:00,63.3,62.7,30.28,NE,45,6.9,6.9,98,0.05,RA,,0.10,WeatherDisplay:10.37,2013-05-02 13:43:00,
2013-05-02 09:48:00,63.3,62.7,30.28,East,90,8.1,8.1,98,0.05,CLR,,0.11,WeatherDisplay:10.37,2013-05-02 13:48:00,
2013-05-02 09:53:00,63.5,62.9,30.28,East,90,10.4,10.4,98,0.06,RA,,0.11,WeatherDisplay:10.37,2013-05-02 13:53:00,
2013-05-02 09:58:00,63.9,63.3,30.28,ENE,68,6.9,6.9,98,0.06,RA,,0.11,WeatherDisplay:10.37,2013-05-02 13:58:00,
2013-05-02 10:03:00,64.0,63.4,30.28,NE,45,6.9,6.9,98,0.06,CLR,,0.11,WeatherDisplay:10.37,2013-05-02 14:03:00,
2013-05-02 10:08:00,64.0,63.4,30.28,NE,45,5.8,5.8,98,0.06,CLR,,0.11,WeatherDisplay:10.37,2013-05-02 14:08:00,
2013-05-02 10:13:00,64.4,63.8,30.28,ESE,112,9.4,9.4,98,0.05,CLR,,0.11,WeatherDisplay:10.37,2013-05-02 14:13:00,
2013-05-02 10:18:00,64.0,63.4,30.28,ESE,112,13.8,13.8,98,0.05,RA,,0.12,WeatherDisplay:10.37,2013-05-02 14:18:00,
2013-05-02 10:23:00,64.2,63.6,30.28,ENE,68,9.2,9.2,98,0.05,RA,,0.12,WeatherDisplay:10.37,2013-05-02 14:23:00,
2013-05-02 10:28:00,64.0,63.4,30.29,East,90,10.2,10.2,98,0.04,CLR,,0.12,WeatherDisplay:10.37,2013-05-02 14:28:00,
2013-05-02 10:33:00,64.0,63.4,30.29,SSE,158,11.5,11.5,98,0.03,CLR,,0.12,WeatherDisplay:10.37,2013-05-02 14:33:00,
2013-05-02 10:38:00,63.9,63.3,30.28,ESE,112,11.5,11.5,98,0.02,CLR,,0.12,WeatherDisplay:10.37,2013-05-02 14:38:00,
2013-05-02 10:43:00,64.0,63.4,30.28,ENE,68,13.8,13.8,98,0.02,CLR,,0.12,WeatherDisplay:10.37,2013-05-02 14:43:00,
2013-05-02 10:48:00,63.9,63.3,30.28,ENE,68,11.5,11.5,98,0.01,CLR,,0.12,WeatherDisplay:10.37,2013-05-02 14:48:00,
2013-05-02 10:53:00,63.9,63.3,30.28,ENE,68,6.9,6.9,98,0.01,CLR,,0.12,WeatherDisplay:10.37,2013-05-02 14:53:00,
2013-05-02 10:58:00,63.7,63.1,30.28,East,90,14.8,14.8,98,0.01,CLR,,0.12,WeatherDisplay:10.37,2013-05-02 14:58:00,
2013-05-02 11:03:00,63.7,63.1,30.29,North,360,10.2,10.2,98,0.01,CLR,,0.12,WeatherDisplay:10.37,2013-05-02 15:03:00,
2013-05-02 11:08:00,63.7,63.1,30.29,NE,45,11.0,11.0,98,0.01,CLR,,0.12,WeatherDisplay:10.37,2013-05-02 15:08:00,
2013-05-02 11:13:00,63.3,62.7,30.29,East,90,12.7,12.7,98,0.01,CLR,,0.12,WeatherDisplay:10.37,2013-05-02 15:13:00,
2013-05-02 11:18:00,63.0,62.4,30.29,NE,45,16.1,16.1,98,0.00,CLR,,0.12,WeatherDisplay:10.37,2013-05-02 15:18:00,
2013-05-02 11:23:00,63.0,62.4,30.29,SE,135,9.2,9.2,98,0.00,CLR,,0.12,WeatherDisplay:10.37,2013-05-02 15:23:00,
2013-05-02 11:28:00,62.8,62.2,30.29,ENE,68,13.8,13.8,98,0.00,CLR,,0.12,WeatherDisplay:10.37,2013-05-02 15:28:00,
2013-05-02 11:33:00,62.8,62.2,30.29,East,90,11.5,11.5,98,0.00,CLR,,0.12,WeatherDisplay:10.37,2013-05-02 15:33:00,
2013-05-02 11:38:00,62.8,62.2,30.29,NE,45,11.5,11.5,98,0.00,CLR,,0.12,WeatherDisplay:10.37,2013-05-02 15:38:00,
2013-05-02 11:43:00,63.3,62.7,30.29,East,90,10.2,10.2,98,0.00,CLR,,0.12,WeatherDisplay:10.37,2013-05-02 15:43:00,
2013-05-02 11:48:00,63.3,62.7,30.29,ESE,112,11.5,11.5,98,0.00,CLR,,0.12,WeatherDisplay:10.37,2013-05-02 15:48:00,
2013-05-02 11:53:00,63.9,63.3,30.29,East,90,13.8,13.8,98,0.00,CLR,,0.12,WeatherDisplay:10.37,2013-05-02 15:53:00,
2013-05-02 11:58:00,63.9,63.3,30.29,ESE,112,13.8,13.8,98,0.00,CLR,,0.12,WeatherDisplay:10.37,2013-05-02 15:58:00,
2013-05-02 12:03:00,64.0,63.4,30.29,ESE,112,11.5,11.5,98,0.00,CLR,,0.12,WeatherDisplay:10.37,2013-05-02 16:03:00,
2013-05-02 12:08:00,64.4,63.8,30.29,ENE,68,11.5,11.5,98,0.00,CLR,,0.12,WeatherDisplay:10.37,2013-05-02 16:08:00,
2013-05-02 12:13:00,64.4,63.8,30.29,East,90,12.7,12.7,98,0.00,CLR,,0.12,WeatherDisplay:10.37,2013-05-02 16:13:00,
2013-05-02 12:18:00,65.3,64.7,30.28,NE,45,9.4,9.4,98,0.00,CLR,,0.12,WeatherDisplay:10.37,2013-05-02 16:18:00,
2013-05-02 12:23:00,65.5,64.9,30.28,East,90,11.5,11.5,98,0.00,CLR,,0.12,WeatherDisplay:10.37,2013-05-02 16:23:00,
2013-05-02 12:28:00,65.7,65.1,30.28,NE,45,15.0,15.0,98,0.00,CLR,,0.12,WeatherDisplay:10.37,2013-05-02 16:28:00,
2013-05-02 12:33:00,65.5,64.0,30.28,East,90,17.3,17.3,95,0.00,CLR,,0.12,WeatherDisplay:10.37,2013-05-02 16:33:00,
2013-05-02 12:38:00,65.7,65.1,30.28,NE,45,10.2,10.2,98,0.00,CLR,,0.12,WeatherDisplay:10.37,2013-05-02 16:38:00,
2013-05-02 12:43:00,66.0,62.7,30.28,ENE,68,11.7,11.7,89,0.00,CLR,,0.12,WeatherDisplay:10.37,2013-05-02 16:43:00,
2013-05-02 12:48:00,66.6,62.6,30.28,ESE,112,16.4,16.4,87,0.00,CLR,,0.12,WeatherDisplay:10.37,2013-05-02 16:48:00,
2013-05-02 12:53:00,66.7,62.0,30.28,North,360,20.7,20.7,85,0.00,CLR,,0.12,WeatherDisplay:10.37,2013-05-02 16:53:00,
2013-05-02 12:58:00,67.3,62.3,30.28,NW,315,7.1,7.1,84,0.00,CLR,,0.12,WeatherDisplay:10.37,2013-05-02 16:58:00,
2013-05-02 13:03:00,67.3,61.6,30.28,NE,45,16.1,16.1,82,0.00,CLR,,0.12,WeatherDisplay:10.37,2013-05-02 17:03:00,
2013-05-02 13:08:00,67.3,60.9,30.28,East,90,13.8,13.8,80,0.00,CLR,,0.12,WeatherDisplay:10.37,2013-05-02 17:08:00,
2013-05-02 13:13:00,67.3,60.6,30.28,ENE,68,13.8,13.8,79,0.00,CLR,,0.12,WeatherDisplay:10.37,2013-05-02 17:13:00,
2013-05-02 13:18:00,67.5,60.8,30.28,ENE,68,11.7,11.7,79,0.00,CLR,,0.12,WeatherDisplay:10.37,2013-05-02 17:18:00,
2013-05-02 13:23:00,67.1,59.6,30.28,East,90,19.6,19.6,77,0.00,CLR,,0.12,WeatherDisplay:10.37,2013-05-02 17:23:00,
2013-05-02 13:28:00,67.5,60.0,30.28,East,90,11.0,11.0,77,0.00,CLR,,0.12,WeatherDisplay:10.37,2013-05-02 17:28:00,
2013-05-02 13:33:00,67.6,60.1,30.28,ENE,68,22.5,22.5,77,0.00,CLR,,0.12,WeatherDisplay:10.37,2013-05-02 17:33:00,
2013-05-02 13:38:00,67.5,59.7,30.28,East,90,23.0,23.0,76,0.00,CLR,,0.12,WeatherDisplay:10.37,2013-05-02 17:38:00,
2013-05-02 13:43:00,67.3,59.1,30.28,ENE,68,19.6,19.6,75,0.00,CLR,,0.12,WeatherDisplay:10.37,2013-05-02 17:43:00,
2013-05-02 13:48:00,67.8,59.6,30.28,East,90,15.0,15.0,75,0.00,CLR,,0.12,WeatherDisplay:10.37,2013-05-02 17:48:00,
2013-05-02 13:53:00,68.2,59.6,30.28,East,90,12.7,12.7,74,0.00,CLR,,0.12,WeatherDisplay:10.37,2013-05-02 17:53:00,
2013-05-02 13:58:00,68.2,59.6,30.28,South,180,15.6,15.6,74,0.00,CLR,,0.12,WeatherDisplay:10.37,2013-05-02 17:58:00,
2013-05-02 14:03:00,68.2,59.2,30.27,ENE,68,13.8,13.8,73,0.00,CLR,,0.12,WeatherDisplay:10.37,2013-05-02 18:03:00,
2013-05-02 14:08:00,68.2,58.4,30.27,East,90,19.6,19.6,71,0.00,CLR,,0.12,WeatherDisplay:10.37,2013-05-02 18:08:00,
2013-05-02 14:14:00,68.4,58.6,30.27,North,360,13.8,13.8,71,0.00,CLR,,0.12,WeatherDisplay:10.37,2013-05-02 18:14:00,
2013-05-02 14:19:00,68.4,58.6,30.27,ENE,68,17.3,17.3,71,0.00,CLR,,0.12,WeatherDisplay:10.37,2013-05-02 18:19:00,
2013-05-02 14:24:00,69.1,58.5,30.27,East,90,22.5,22.5,69,0.00,CLR,,0.12,WeatherDisplay:10.37,2013-05-02 18:24:00,
2013-05-02 14:29:00,68.7,58.1,30.27,East,90,20.7,20.7,69,0.00,CLR,,0.12,WeatherDisplay:10.37,2013-05-02 18:29:00,
2013-05-02 14:34:00,68.9,58.3,30.27,NW,315,13.8,13.8,69,0.00,CLR,,0.12,WeatherDisplay:10.37,2013-05-02 18:34:00,
2013-05-02 14:39:00,68.9,58.3,30.26,NE,45,12.7,12.7,69,0.00,CLR,,0.12,WeatherDisplay:10.37,2013-05-02 18:39:00,
2013-05-02 14:44:00,69.4,58.4,30.26,ENE,68,12.7,12.7,68,0.00,CLR,,0.12,WeatherDisplay:10.37,2013-05-02 18:44:00,
2013-05-02 14:49:00,70.0,59.0,30.26,SE,135,11.7,11.7,68,0.00,CLR,,0.12,WeatherDisplay:10.37,2013-05-02 18:49:00,
2013-05-02 14:54:00,70.3,58.8,30.26,East,90,14.8,14.8,67,0.00,CLR,,0.12,WeatherDisplay:10.37,2013-05-02 18:54:00,
2013-05-02 14:59:00,69.6,57.7,30.26,ENE,68,16.1,16.1,66,0.00,CLR,,0.12,WeatherDisplay:10.37,2013-05-02 18:59:00,
2013-05-02 15:04:00,69.4,57.5,30.26,ESE,112,23.0,23.0,66,0.00,CLR,,0.12,WeatherDisplay:10.37,2013-05-02 19:04:00,
2013-05-02 15:09:00,69.4,57.5,30.26,East,90,19.4,19.4,66,0.00,CLR,,0.12,WeatherDisplay:10.37,2013-05-02 19:09:00,
2013-05-02 15:14:00,70.3,58.8,30.26,NE,45,8.1,8.1,67,0.00,CLR,,0.12,WeatherDisplay:10.37,2013-05-02 19:14:00,
2013-05-02 15:19:00,71.1,58.7,30.26,East,90,11.5,11.5,65,0.00,CLR,,0.12,WeatherDisplay:10.37,2013-05-02 19:19:00,
2013-05-02 15:24:00,70.3,58.0,30.26,NNW,338,13.8,13.8,65,0.00,CLR,,0.12,WeatherDisplay:10.37,2013-05-02 19:24:00,
2013-05-02 15:29:00,70.3,57.5,30.26,ESE,112,12.7,12.7,64,0.00,CLR,,0.12,WeatherDisplay:10.37,2013-05-02 19:29:00,
2013-05-02 15:34:00,70.3,58.0,30.26,NE,45,16.1,16.1,65,0.00,CLR,,0.12,WeatherDisplay:10.37,2013-05-02 19:34:00,
2013-05-02 15:39:00,70.2,57.4,30.25,East,90,12.7,12.7,64,0.00,CLR,,0.12,WeatherDisplay:10.37,2013-05-02 19:39:00,
2013-05-02 15:44:00,69.8,57.1,30.25,ENE,68,12.7,12.7,64,0.00,CLR,,0.12,WeatherDisplay:10.37,2013-05-02 19:44:00,
2013-05-02 15:49:00,69.8,57.1,30.25,ENE,68,18.4,18.4,64,0.00,CLR,,0.12,WeatherDisplay:10.37,2013-05-02 19:49:00,
2013-05-02 15:54:00,70.0,57.3,30.25,NE,45,9.4,9.4,64,0.00,CLR,,0.12,WeatherDisplay:10.37,2013-05-02 19:54:00,
2013-05-02 15:59:00,69.8,57.5,30.25,ESE,112,13.8,13.8,65,0.00,CLR,,0.12,WeatherDisplay:10.37,2013-05-02 19:59:00,
2013-05-02 16:04:00,69.4,56.7,30.25,North,360,9.2,9.2,64,0.00,CLR,,0.12,WeatherDisplay:10.37,2013-05-02 20:04:00,
2013-05-02 16:09:00,70.0,57.3,30.25,ENE,68,14.8,14.8,64,0.00,CLR,,0.12,WeatherDisplay:10.37,2013-05-02 20:09:00,
2013-05-02 16:14:00,70.0,57.7,30.25,NNE,22,15.0,15.0,65,0.00,CLR,,0.12,WeatherDisplay:10.37,2013-05-02 20:14:00,
2013-05-02 16:19:00,70.0,57.3,30.25,East,90,13.3,13.3,64,0.00,CLR,,0.12,WeatherDisplay:10.37,2013-05-02 20:19:00,
2013-05-02 16:24:00,70.0,57.3,30.25,East,90,18.7,18.7,64,0.00,CLR,,0.12,WeatherDisplay:10.37,2013-05-02 20:24:00,
2013-05-02 16:29:00,70.0,58.1,30.24,East,90,15.0,15.0,66,0.00,CLR,,0.12,WeatherDisplay:10.37,2013-05-02 20:29:00,
2013-05-02 16:34:00,70.0,59.0,30.24,East,90,15.0,15.0,68,0.00,CLR,,0.12,WeatherDisplay:10.37,2013-05-02 20:34:00,
2013-05-02 16:39:00,69.6,58.6,30.24,NE,45,12.7,12.7,68,0.00,CLR,,0.12,WeatherDisplay:10.37,2013-05-02 20:39:00,
2013-05-02 16:44:00,69.8,58.8,30.24,ENE,68,11.5,11.5,68,0.00,CLR,,0.12,WeatherDisplay:10.37,2013-05-02 20:44:00,
2013-05-02 16:49:00,69.8,58.8,30.24,NNE,22,9.2,9.2,68,0.00,CLR,,0.12,WeatherDisplay:10.37,2013-05-02 20:49:00,
2013-05-02 16:54:00,69.4,58.0,30.23,NNE,22,15.0,15.0,67,0.00,CLR,,0.12,WeatherDisplay:10.37,2013-05-02 20:54:00,
2013-05-02 16:59:00,69.6,58.2,30.23,ESE,112,18.4,18.4,67,0.00,CLR,,0.12,WeatherDisplay:10.37,2013-05-02 20:59:00,
2013-05-02 17:04:00,68.9,58.3,30.23,NE,45,15.0,15.0,69,0.00,CLR,,0.12,WeatherDisplay:10.37,2013-05-02 21:04:00,
2013-05-02 17:09:00,68.2,57.6,30.23,WNW,292,9.4,9.4,69,0.00,CLR,,0.12,WeatherDisplay:10.37,2013-05-02 21:09:00,
2013-05-02 17:14:00,68.0,57.8,30.23,East,90,12.7,12.7,70,0.00,CLR,,0.12,WeatherDisplay:10.37,2013-05-02 21:14:00,
2013-05-02 17:19:00,68.0,58.2,30.23,East,90,13.8,13.8,71,0.00,CLR,,0.12,WeatherDisplay:10.37,2013-05-02 21:19:00,
2013-05-02 17:24:00,68.0,58.2,30.23,East,90,13.8,13.8,71,0.00,CLR,,0.12,WeatherDisplay:10.37,2013-05-02 21:24:00,
2013-05-02 17:29:00,67.8,58.1,30.23,NNE,22,13.8,13.8,71,0.00,CLR,,0.12,WeatherDisplay:10.37,2013-05-02 21:29:00,
2013-05-02 17:34:00,67.6,57.9,30.23,ENE,68,16.1,16.1,71,0.00,CLR,,0.12,WeatherDisplay:10.37,2013-05-02 21:34:00,
2013-05-02 17:39:00,67.8,58.1,30.23,SE,135,12.7,12.7,71,0.00,CLR,,0.12,WeatherDisplay:10.37,2013-05-02 21:39:00,
2013-05-02 17:44:00,67.5,57.4,30.23,ENE,68,13.8,13.8,70,0.00,CLR,,0.12,WeatherDisplay:10.37,2013-05-02 21:44:00,
2013-05-02 17:49:00,67.3,57.6,30.23,NNE,22,18.4,18.4,71,0.00,CLR,,0.12,WeatherDisplay:10.37,2013-05-02 21:49:00,
2013-05-02 17:54:00,66.7,57.4,30.23,ESE,112,16.1,16.1,72,0.00,CLR,,0.12,WeatherDisplay:10.37,2013-05-02 21:54:00,
2013-05-02 17:59:00,66.4,57.9,30.23,SE,135,15.6,15.6,74,0.00,CLR,,0.12,WeatherDisplay:10.37,2013-05-02 21:59:00,
2013-05-02 18:04:00,66.0,57.5,30.22,East,90,14.0,14.0,74,0.00,CLR,,0.12,WeatherDisplay:10.37,2013-05-02 22:04:00,
2013-05-02 18:09:00,65.7,57.6,30.22,East,90,12.7,12.7,75,0.00,CLR,,0.12,WeatherDisplay:10.37,2013-05-02 22:09:00,
2013-05-02 18:14:00,65.7,56.8,30.22,ESE,112,13.8,13.8,73,0.00,CLR,,0.12,WeatherDisplay:10.37,2013-05-02 22:14:00,
2013-05-02 18:19:00,65.3,56.4,30.22,ENE,68,20.7,20.7,73,0.00,CLR,,0.12,WeatherDisplay:10.37,2013-05-02 22:19:00,
2013-05-02 18:25:00,65.3,56.8,30.22,East,90,12.5,12.5,74,0.00,CLR,,0.12,WeatherDisplay:10.37,2013-05-02 22:25:00,
2013-05-02 18:30:00,65.5,57.4,30.22,East,90,12.7,12.7,75,0.00,CLR,,0.12,WeatherDisplay:10.37,2013-05-02 22:30:00,
2013-05-02 18:35:00,65.5,56.6,30.22,NE,45,16.1,16.1,73,0.00,CLR,,0.12,WeatherDisplay:10.37,2013-05-02 22:35:00,
2013-05-02 18:40:00,65.5,57.0,30.22,ESE,112,14.8,14.8,74,0.00,CLR,,0.12,WeatherDisplay:10.37,2013-05-02 22:40:00,
2013-05-02 18:45:00,65.5,57.0,30.22,SSE,158,15.0,15.0,74,0.00,CLR,,0.12,WeatherDisplay:10.37,2013-05-02 22:45:00,
2013-05-02 18:50:00,63.7,55.6,30.22,ENE,68,13.8,13.8,75,0.00,CLR,,0.12,WeatherDisplay:10.37,2013-05-02 22:50:00,
2013-05-02 18:55:00,66.0,58.6,30.22,ENE,68,11.5,11.5,77,0.00,CLR,,0.12,WeatherDisplay:10.37,2013-05-02 22:55:00,
2013-05-02 19:00:00,65.1,58.1,30.22,East,90,13.8,13.8,78,0.00,CLR,,0.12,WeatherDisplay:10.37,2013-05-02 23:00:00,
2013-05-02 19:05:00,64.9,58.2,30.22,East,90,23.0,23.0,79,0.00,CLR,,0.12,WeatherDisplay:10.37,2013-05-02 23:05:00,
2013-05-02 19:10:00,64.8,58.5,30.22,East,90,17.3,17.3,80,0.00,CLR,,0.12,WeatherDisplay:10.37,2013-05-02 23:10:00,
2013-05-02 19:15:00,64.6,58.6,30.22,North,360,11.5,11.5,81,0.00,CLR,,0.12,WeatherDisplay:10.37,2013-05-02 23:15:00,
2013-05-02 19:20:00,64.2,58.6,30.22,ENE,68,11.7,11.7,82,0.00,CLR,,0.12,WeatherDisplay:10.37,2013-05-02 23:20:00,
2013-05-02 19:25:00,63.9,58.3,30.22,ENE,68,18.4,18.4,82,0.00,CLR,,0.12,WeatherDisplay:10.37,2013-05-02 23:25:00,
2013-05-02 19:30:00,63.7,58.4,30.23,NNE,22,16.1,16.1,83,0.00,CLR,,0.12,WeatherDisplay:10.37,2013-05-02 23:30:00,
2013-05-02 19:35:00,63.5,58.2,30.23,East,90,12.7,12.7,83,0.00,CLR,,0.12,WeatherDisplay:10.37,2013-05-02 23:35:00,
2013-05-02 19:40:00,63.1,58.2,30.22,ESE,112,10.4,10.4,84,0.00,CLR,,0.12,WeatherDisplay:10.37,2013-05-02 23:40:00,
2013-05-02 19:45:00,63.0,58.1,30.22,East,90,15.6,15.6,84,0.00,CLR,,0.12,WeatherDisplay:10.37,2013-05-02 23:45:00,
2013-05-02 19:50:00,62.8,57.9,30.22,ENE,68,14.0,14.0,84,0.00,CLR,,0.12,WeatherDisplay:10.37,2013-05-02 23:50:00,
2013-05-02 19:55:00,62.6,58.0,30.23,East,90,17.1,17.1,85,0.00,CLR,,0.12,WeatherDisplay:10.37,2013-05-02 23:55:00,
2013-05-02 20:00:00,62.6,58.4,30.23,ENE,68,9.2,9.2,86,0.00,CLR,,0.12,WeatherDisplay:10.37,2013-05-03 00:00:00,
2013-05-02 20:05:00,62.4,58.2,30.23,ESE,112,11.7,11.7,86,0.00,CLR,,0.12,WeatherDisplay:10.37,2013-05-03 00:05:00,
2013-05-02 20:10:00,62.2,58.0,30.23,ENE,68,12.7,12.7,86,0.00,CLR,,0.12,WeatherDisplay:10.37,2013-05-03 00:10:00,
2013-05-02 20:15:00,62.2,58.0,30.23,ENE,68,9.4,9.4,86,0.00,CLR,,0.12,WeatherDisplay:10.37,2013-05-03 00:15:00,
2013-05-02 20:20:00,62.1,57.9,30.23,ESE,112,8.6,8.6,86,0.00,CLR,,0.12,WeatherDisplay:10.37,2013-05-03 00:20:00,
2013-05-02 20:25:00,61.9,58.0,30.23,NE,45,8.1,8.1,87,0.00,CLR,,0.12,WeatherDisplay:10.37,2013-05-03 00:25:00,
2013-05-02 20:30:00,61.9,58.0,30.23,ENE,68,11.7,11.7,87,0.00,CLR,,0.12,WeatherDisplay:10.37,2013-05-03 00:30:00,
2013-05-02 20:35:00,61.7,57.8,30.23,East,90,11.7,11.7,87,0.00,CLR,,0.12,WeatherDisplay:10.37,2013-05-03 00:35:00,
2013-05-02 20:40:00,61.7,58.1,30.25,NNE,22,9.2,9.2,88,0.00,CLR,,0.12,WeatherDisplay:10.37,2013-05-03 00:40:00,
2013-05-02 20:45:00,61.3,57.7,30.25,ENE,68,6.9,6.9,88,0.00,CLR,,0.12,WeatherDisplay:10.37,2013-05-03 00:45:00,
2013-05-02 20:50:00,61.3,57.7,30.24,East,90,11.5,11.5,88,0.00,CLR,,0.12,WeatherDisplay:10.37,2013-05-03 00:50:00,
2013-05-02 20:55:00,61.3,58.0,30.24,East,90,6.9,6.9,89,0.00,CLR,,0.12,WeatherDisplay:10.37,2013-05-03 00:55:00,
2013-05-02 21:00:00,61.3,58.0,30.24,East,90,10.4,10.4,89,0.00,CLR,,0.12,WeatherDisplay:10.37,2013-05-03 01:00:00,
2013-05-02 21:05:00,61.2,57.9,30.25,East,90,10.4,10.4,89,0.00,CLR,,0.12,WeatherDisplay:10.37,2013-05-03 01:05:00,
2013-05-02 21:10:00,61.3,58.3,30.25,East,90,9.4,9.4,90,0.00,CLR,,0.12,WeatherDisplay:10.37,2013-05-03 01:10:00,
2013-05-02 21:15:00,61.2,58.2,30.25,ESE,112,6.9,6.9,90,0.00,CLR,,0.12,WeatherDisplay:10.37,2013-05-03 01:15:00,
2013-05-02 21:20:00,61.0,58.0,30.25,NNE,22,6.9,6.9,90,0.00,CLR,,0.12,WeatherDisplay:10.37,2013-05-03 01:20:00,
2013-05-02 21:25:00,61.2,58.2,30.25,East,90,15.0,15.0,90,0.00,CLR,,0.12,WeatherDisplay:10.37,2013-05-03 01:25:00,
2013-05-02 21:30:00,61.3,58.3,30.25,ENE,68,9.4,9.9,90,0.00,CLR,,0.12,WeatherDisplay:10.37,2013-05-03 01:30:00,
2013-05-02 21:35:00,61.3,58.3,30.25,NE,45,9.2,9.2,90,0.00,CLR,,0.12,WeatherDisplay:10.37,2013-05-03 01:35:00,
2013-05-02 21:40:00,61.2,58.2,30.26,NNE,22,11.5,11.5,90,0.00,CLR,,0.12,WeatherDisplay:10.37,2013-05-03 01:40:00,
2013-05-02 21:45:00,61.0,58.0,30.26,NE,45,9.2,9.2,90,0.00,CLR,,0.12,WeatherDisplay:10.37,2013-05-03 01:45:00,
2013-05-02 21:50:00,61.0,58.4,30.25,NNE,22,12.7,12.7,91,0.00,CLR,,0.12,WeatherDisplay:10.37,2013-05-03 01:50:00,
2013-05-02 21:55:00,61.0,58.4,30.25,NNE,22,5.8,5.8,91,0.00,CLR,,0.12,WeatherDisplay:10.37,2013-05-03 01:55:00,
2013-05-02 22:00:00,61.0,58.4,30.25,NE,45,10.4,10.4,91,0.00,CLR,,0.12,WeatherDisplay:10.37,2013-05-03 02:00:00,
2013-05-02 22:05:00,60.8,60.2,30.24,East,90,7.1,7.1,98,0.00,CLR,,0.12,WeatherDisplay:10.37,2013-05-03 02:05:00,
2013-05-02 22:10:00,60.8,60.2,30.24,NE,45,13.8,13.8,98,0.00,CLR,,0.12,WeatherDisplay:10.37,2013-05-03 02:10:00,
2013-05-02 22:15:00,60.6,60.0,30.24,East,90,11.5,11.5,98,0.00,CLR,,0.12,WeatherDisplay:10.37,2013-05-03 02:15:00,
2013-05-02 22:20:00,60.6,60.0,30.24,ENE,68,6.9,6.9,98,0.00,CLR,,0.12,WeatherDisplay:10.37,2013-05-03 02:20:00,
2013-05-02 22:25:00,60.4,59.8,30.24,ENE,68,8.1,8.1,98,0.00,CLR,,0.12,WeatherDisplay:10.37,2013-05-03 02:25:00,
2013-05-02 22:30:00,60.6,60.0,30.23,ESE,112,17.3,17.3,98,0.00,CLR,,0.12,WeatherDisplay:10.37,2013-05-03 02:30:00,
2013-05-02 22:35:00,60.6,60.0,30.23,ENE,68,9.4,9.4,98,0.00,CLR,,0.12,WeatherDisplay:10.37,2013-05-03 02:35:00,
2013-05-02 22:40:00,60.6,60.0,30.23,East,90,11.5,11.5,98,0.00,CLR,,0.12,WeatherDisplay:10.37,2013-05-03 02:40:00,
2013-05-02 22:45:00,60.6,60.0,30.23,ENE,68,7.1,7.1,98,0.00,CLR,,0.12,WeatherDisplay:10.37,2013-05-03 02:45:00,
2013-05-02 22:50:00,60.4,59.8,30.22,NNE,22,6.9,6.9,98,0.00,CLR,,0.12,WeatherDisplay:10.37,2013-05-03 02:50:00,
2013-05-02 22:55:00,60.4,59.8,30.22,ESE,112,9.4,9.4,98,0.00,CLR,,0.12,WeatherDisplay:10.37,2013-05-03 02:55:00,
2013-05-02 23:00:00,60.3,59.7,30.22,ESE,112,9.2,9.2,98,0.00,CLR,,0.12,WeatherDisplay:10.37,2013-05-03 03:00:00,
2013-05-02 23:05:00,60.4,59.8,30.23,ENE,68,11.5,11.5,98,0.00,CLR,,0.12,WeatherDisplay:10.37,2013-05-03 03:05:00,
2013-05-02 23:10:00,60.4,59.8,30.23,NNE,22,6.9,6.9,98,0.00,CLR,,0.12,WeatherDisplay:10.37,2013-05-03 03:10:00,
2013-05-02 23:15:00,60.4,59.8,30.23,ENE,68,8.1,9.8,98,0.00,CLR,,0.12,WeatherDisplay:10.37,2013-05-03 03:15:00,
2013-05-02 23:20:00,60.4,59.8,30.23,NE,45,6.9,6.9,98,0.00,CLR,,0.12,WeatherDisplay:10.37,2013-05-03 03:20:00,
2013-05-02 23:25:00,60.4,59.8,30.23,North,360,9.2,9.2,98,0.00,CLR,,0.12,WeatherDisplay:10.37,2013-05-03 03:25:00,
2013-05-02 23:30:00,60.6,60.0,30.23,NNE,22,10.4,10.4,98,0.00,CLR,,0.12,WeatherDisplay:10.37,2013-05-03 03:30:00,
2013-05-02 23:35:00,60.6,60.0,30.23,ENE,68,6.9,6.9,98,0.00,CLR,,0.12,WeatherDisplay:10.37,2013-05-03 03:35:00,
2013-05-02 23:40:00,60.8,60.2,30.23,ESE,112,9.2,9.2,98,0.00,CLR,,0.12,WeatherDisplay:10.37,2013-05-03 03:40:00,
2013-05-02 23:45:00,60.8,60.2,30.23,East,90,16.1,16.1,98,0.00,CLR,,0.12,WeatherDisplay:10.37,2013-05-03 03:45:00,
2013-05-02 23:50:00,60.8,60.2,30.23,NE,45,15.0,15.0,98,0.00,CLR,,0.12,WeatherDisplay:10.37,2013-05-03 03:50:00,
2013-05-02 23:55:00,60.8,60.2,30.23,NE,45,7.1,7.1,98,0.00,CLR,,0.12,WeatherDisplay:10.37,2013-05-03 03:55:00,